User: anonymous   Login
Location: Cypress Hills Dark-Sky Preserve - CHICO
(49.6176°N, 110.2634°W)
Time: 09:53:37
(UTC-06:00)
Language:

SPOT 5 - Orbit

View from above orbital plane
View from above orbital plane
View from above satellite
View from above satellite

Ground track
Ground track

The orbit data is extracted from the following two-line orbital elements,

1 27421U 02021A   16120.42442135  .00000030  00000-0  18273-4 0  9994
2 27421  98.4605 175.9067 0135924 153.6921 207.1262 14.51790083725637
Epoch (UTC): 29 April 2016 10:11:10
Eccentricity: 0.0135924
inclination: 98.4605°
perigee height: 623 km
apogee height: 816 km
right ascension of ascending node: 175.9067°
argument of perigee: 153.6921°
revolutions per day: 14.51790083
mean anomaly at epoch: 207.1262°
orbit number at epoch: 72563

The dashed part of the orbit path shows where the satellite is in the earth's shadow,  

DLR